Regional Weather Roundup
Issued by NWS

Home | Current Version | Previous Version | Text Only | Print | Product List | Glossary Off
Versions: 1 2 3 4 5 6 7 8 9 10 11 12 13 14 15 16 17 18 19 20 21 22 23 24 25 26 27 28 29 30 31 32 33 34 35 36 37 38 39 40 41 42 43 44 45 46 47 48 49 50

040
ASUS45 KCYS 031410
RWRWY

WYOMING REGIONAL WEATHER ROUNDUP
NATIONAL WEATHER SERVICE CHEYENNE WY
700 AM MST SAT DEC 03 2016

NOTE:  "FAIR" INDICATES FEW OR NO CLOUDS BELOW 12,000 FEET
WITH NO SIGNIFICANT WEATHER AND/OR OBSTRUCTIONS TO VISIBILITY.

WYZ001-031500-
YELLOWSTONE NATIONAL PARK

CITY           SKY/WX    TMP DP  RH WIND       PRES   REMARKS
LK YELLOWSTONE   N/A     12   9  87 CALM      30.03S
W YELLOWSTONE  NOT AVBL

$$
WYZ002>013-054>058-071-098>099-031500-
NORTHERN WYOMING

CITY           SKY/WX    TMP DP  RH WIND       PRES   REMARKS
JACKSON        FLURRIES  19  16  86 S10       30.11R WCI   8
CODY           FAIR      30  11  45 W23G37    29.89F WCI  17
GREYBULL       CLOUDY    24  18  77 SE3       29.97R
WORLAND        CLOUDY    20  17  88 SW5       29.96R WCI  13
SHERIDAN       CLOUDY    25  19  78 CALM      29.90R
BUFFALO        CLOUDY    30  10  43 CALM      29.87R
GILLETTE       CLOUDY    24  13  62 W9        29.87R WCI  14
HULETT         FAIR      27  16  63 SW17      29.87S WCI  14
NEWCASTLE      FAIR      21  14  73 SE5       29.91F WCI  15

$$
WYZ014>020-022>026-101>103-031500-
CENTRAL WYOMING

CITY           SKY/WX    TMP DP  RH WIND       PRES   REMARKS
BIG PINEY      CLOUDY     8   5  87 CALM      30.09R
PINEDALE       CLOUDY    10   5  79 NW6       30.09R WCI   1
DUBOIS         CLOUDY    19   7  58 NW26      29.98R WCI   1
LANDER         FAIR      13   5  70 SE3       29.94R
RIVERTON       FAIR      22   7  52 W13       29.94R WCI  10
CASPER         CLOUDY    22  11  62 SW15      29.94R WCI   9
DOUGLAS        FAIR      25  11  55 W12       29.92S WCI  14

$$
WYZ021-027>030-104>119-031500-
SOUTHERN WYOMING

CITY           SKY/WX    TMP DP  RH WIND       PRES   REMARKS
EVANSTON       CLOUDY    15   8  73 SW13      30.16R WCI   1
FORT BRIDGER   CLOUDY    19   9  63 W21       30.14R WCI   3
ROCK SPRINGS   CLOUDY    16   8  71 SW20      30.09R WCI  -1
DIXON          CLOUDY     8   5  87 CALM      30.17R
RAWLINS        CLOUDY    19   8  62 SW31G40   30.01S WCI   0
SARATOGA       CLOUDY    14   9  79 SE8       30.06F WCI   3
LARAMIE        FAIR      14   3  61 SW20      29.93F WCI  -3
CHEYENNE       FAIR      19   5  54 SW13      29.96S WCI   6
TORRINGTON     FAIR      16   9  74 S7        29.98F WCI   6
PINE BLUFFS    FAIR      10   9  92 S5        30.01S WCI   2

$$




USA.gov is the U.S. government's official web portal to all federal, state and local government web resources and services.